Time,TemperatureF,DewpointF,PressureIn,WindDirection,WindDirectionDegrees,WindSpeedMPH,WindSpeedGustMPH,Humidity,HourlyPrecipIn,Conditions,Clouds,dailyrainin,SoftwareType,DateUTC
2013-09-09 00:02:00,75.0,68.4,29.98,West,270,0.0,1.0,80,0.00,,,0.00,meteohub,2013-09-09 05:02:00,
2013-09-09 00:07:00,75.0,68.4,29.98,West,270,0.0,0.0,80,0.00,,,0.00,meteohub,2013-09-09 05:07:00,
2013-09-09 00:12:00,75.0,68.4,29.98,WNW,293,1.0,2.0,80,0.00,,,0.00,meteohub,2013-09-09 05:12:00,
2013-09-09 00:17:00,75.0,68.7,29.98,WNW,293,0.0,2.0,81,0.00,,,0.00,meteohub,2013-09-09 05:17:00,
2013-09-09 00:22:00,75.0,68.7,29.98,WNW,293,0.0,2.0,81,0.00,,,0.00,meteohub,2013-09-09 05:22:00,
2013-09-09 00:27:00,74.8,68.5,29.98,WNW,293,0.0,2.0,81,0.00,,,0.00,meteohub,2013-09-09 05:27:00,
2013-09-09 00:32:00,74.8,68.5,29.97,WNW,293,0.0,0.0,81,0.00,,,0.00,meteohub,2013-09-09 05:32:00,
2013-09-09 00:37:00,75.0,68.7,29.98,WNW,293,1.0,0.0,81,0.00,,,0.00,meteohub,2013-09-09 05:37:00,
2013-09-09 00:42:00,74.8,68.9,29.98,WNW,293,0.0,1.0,82,0.00,,,0.00,meteohub,2013-09-09 05:42:00,
2013-09-09 00:47:00,74.7,68.7,29.97,WNW,293,0.0,1.0,82,0.00,,,0.00,meteohub,2013-09-09 05:47:00,
2013-09-09 00:52:00,74.7,68.7,29.97,NW,315,0.0,1.0,82,0.00,,,0.00,meteohub,2013-09-09 05:52:00,
2013-09-09 00:57:00,74.7,68.7,29.97,NW,315,0.0,0.0,82,0.00,,,0.00,meteohub,2013-09-09 05:57:00,
2013-09-09 01:02:00,74.5,68.9,29.97,NW,315,1.0,0.0,83,0.00,,,0.00,meteohub,2013-09-09 06:02:00,
2013-09-09 01:07:00,74.5,68.9,29.97,NW,315,1.0,1.0,83,0.00,,,0.00,meteohub,2013-09-09 06:07:00,
2013-09-09 01:12:00,74.5,68.9,29.97,NW,315,0.0,1.0,83,0.00,,,0.00,meteohub,2013-09-09 06:12:00,
2013-09-09 01:22:00,74.3,69.1,29.96,NW,315,0.0,1.0,84,0.00,,,0.00,meteohub,2013-09-09 06:22:00,
2013-09-09 01:27:00,74.3,69.1,29.96,NW,315,0.0,0.0,84,0.00,,,0.00,meteohub,2013-09-09 06:27:00,
2013-09-09 01:32:00,74.3,69.1,29.96,NW,315,0.0,2.0,84,0.00,,,0.00,meteohub,2013-09-09 06:32:00,
2013-09-09 01:37:00,74.1,68.9,29.96,NW,315,0.0,2.0,84,0.00,,,0.00,meteohub,2013-09-09 06:37:00,
2013-09-09 01:42:00,74.1,69.3,29.97,NW,315,0.0,2.0,85,0.00,,,0.00,meteohub,2013-09-09 06:42:00,
2013-09-09 01:47:00,74.1,69.3,29.97,NW,315,0.0,1.0,85,0.00,,,0.00,meteohub,2013-09-09 06:47:00,
2013-09-09 01:52:00,74.1,69.3,29.96,NW,315,0.0,1.0,85,0.00,,,0.00,meteohub,2013-09-09 06:52:00,
2013-09-09 01:57:00,74.1,69.3,29.97,NW,315,0.0,1.0,85,0.00,,,0.00,meteohub,2013-09-09 06:57:00,
2013-09-09 02:02:00,73.9,69.1,29.97,NW,315,0.0,1.0,85,0.00,,,0.00,meteohub,2013-09-09 07:02:00,
2013-09-09 02:07:00,73.9,69.1,29.97,NW,315,0.0,1.0,85,0.00,,,0.00,meteohub,2013-09-09 07:07:00,
2013-09-09 02:17:00,73.9,69.4,29.97,NW,315,0.0,1.0,86,0.00,,,0.00,meteohub,2013-09-09 07:17:00,
2013-09-09 02:27:00,73.8,69.3,29.96,NW,315,0.0,1.0,86,0.00,,,0.00,meteohub,2013-09-09 07:27:00,
2013-09-09 02:32:00,73.8,69.3,29.96,NW,315,0.0,0.0,86,0.00,,,0.00,meteohub,2013-09-09 07:32:00,
2013-09-09 02:37:00,73.8,69.3,29.96,NW,315,1.0,0.0,86,0.00,,,0.00,meteohub,2013-09-09 07:37:00,
2013-09-09 02:42:00,73.8,69.3,29.96,NW,315,0.0,1.0,86,0.00,,,0.00,meteohub,2013-09-09 07:42:00,
2013-09-09 02:47:00,73.6,69.1,29.96,NW,315,1.0,1.0,86,0.00,,,0.00,meteohub,2013-09-09 07:47:00,
2013-09-09 02:52:00,73.6,69.4,29.96,NW,315,1.0,2.0,87,0.00,,,0.00,meteohub,2013-09-09 07:52:00,
2013-09-09 02:57:00,73.6,69.4,29.96,NW,315,0.0,2.0,87,0.00,,,0.00,meteohub,2013-09-09 07:57:00,
2013-09-09 03:02:00,73.6,69.4,29.96,NW,315,0.0,2.0,87,0.00,,,0.00,meteohub,2013-09-09 08:02:00,
2013-09-09 03:07:00,73.6,69.4,29.95,NW,315,0.0,1.0,87,0.00,,,0.00,meteohub,2013-09-09 08:07:00,
2013-09-09 03:12:00,73.4,69.3,29.96,NNW,338,0.0,0.0,87,0.00,,,0.00,meteohub,2013-09-09 08:12:00,
2013-09-09 03:17:00,73.2,69.1,29.96,NNW,338,0.0,0.0,87,0.00,,,0.00,meteohub,2013-09-09 08:17:00,
2013-09-09 03:22:00,73.2,69.4,29.96,NNW,338,0.0,0.0,88,0.00,,,0.00,meteohub,2013-09-09 08:22:00,
2013-09-09 03:27:00,73.2,69.4,29.96,NNW,338,0.0,0.0,88,0.00,,,0.00,meteohub,2013-09-09 08:27:00,
2013-09-09 03:32:00,73.0,69.3,29.96,NNW,338,0.0,0.0,88,0.00,,,0.00,meteohub,2013-09-09 08:32:00,
2013-09-09 03:37:00,73.2,69.4,29.97,NNW,338,0.0,0.0,88,0.00,,,0.00,meteohub,2013-09-09 08:37:00,
2013-09-09 03:42:00,73.0,69.3,29.97,NNW,338,0.0,0.0,88,0.00,,,0.00,meteohub,2013-09-09 08:42:00,
2013-09-09 03:47:00,73.4,69.6,29.97,NNW,338,0.0,0.0,88,0.00,,,0.00,meteohub,2013-09-09 08:47:00,
2013-09-09 03:52:00,73.0,69.3,29.97,NNW,338,1.0,0.0,88,0.00,,,0.00,meteohub,2013-09-09 08:52:00,
2013-09-09 03:57:00,73.0,69.3,29.97,NNW,338,0.0,1.0,88,0.00,,,0.00,meteohub,2013-09-09 08:57:00,
2013-09-09 04:02:00,73.0,69.3,29.97,North,0,0.0,2.0,88,0.00,,,0.00,meteohub,2013-09-09 09:02:00,
2013-09-09 04:07:00,73.0,69.3,29.97,North,0,0.0,2.0,88,0.00,,,0.00,meteohub,2013-09-09 09:07:00,
2013-09-09 04:12:00,72.9,69.4,29.97,North,0,0.0,2.0,89,0.00,,,0.00,meteohub,2013-09-09 09:12:00,
2013-09-09 04:17:00,72.9,69.4,29.97,North,0,0.0,0.0,89,0.00,,,0.00,meteohub,2013-09-09 09:17:00,
2013-09-09 04:22:00,72.9,69.4,29.97,North,0,0.0,0.0,89,0.00,,,0.00,meteohub,2013-09-09 09:22:00,
2013-09-09 04:27:00,72.9,69.4,29.97,North,0,1.0,0.0,89,0.00,,,0.00,meteohub,2013-09-09 09:27:00,
2013-09-09 04:32:00,72.7,69.3,29.98,North,0,0.0,2.0,89,0.00,,,0.00,meteohub,2013-09-09 09:32:00,
2013-09-09 04:37:00,72.9,69.4,29.98,North,0,0.0,2.0,89,0.00,,,0.00,meteohub,2013-09-09 09:37:00,
2013-09-09 04:42:00,72.9,69.4,29.98,North,0,1.0,2.0,89,0.00,,,0.00,meteohub,2013-09-09 09:42:00,
2013-09-09 04:47:00,72.9,69.4,29.98,North,0,0.0,1.0,89,0.00,,,0.00,meteohub,2013-09-09 09:47:00,
2013-09-09 04:52:00,72.7,69.6,29.98,North,0,1.0,1.0,90,0.00,,,0.00,meteohub,2013-09-09 09:52:00,
2013-09-09 05:02:00,72.9,69.4,29.98,North,0,0.0,2.0,89,0.00,,,0.00,meteohub,2013-09-09 10:02:00,
2013-09-09 05:07:00,72.9,69.4,29.98,North,0,0.0,2.0,89,0.00,,,0.00,meteohub,2013-09-09 10:07:00,
2013-09-09 05:12:00,72.7,69.6,29.98,North,0,0.0,1.0,90,0.00,,,0.00,meteohub,2013-09-09 10:12:00,
2013-09-09 05:17:00,72.7,69.6,29.98,North,0,0.0,1.0,90,0.00,,,0.00,meteohub,2013-09-09 10:17:00,
2013-09-09 05:22:00,72.5,69.4,29.98,North,0,0.0,2.0,90,0.00,,,0.00,meteohub,2013-09-09 10:22:00,
2013-09-09 05:27:00,72.7,69.6,29.98,North,0,0.0,2.0,90,0.00,,,0.00,meteohub,2013-09-09 10:27:00,
2013-09-09 05:32:00,72.7,69.6,29.98,North,0,0.0,2.0,90,0.00,,,0.00,meteohub,2013-09-09 10:32:00,
2013-09-09 05:37:00,72.5,69.4,29.98,North,0,0.0,1.0,90,0.00,,,0.00,meteohub,2013-09-09 10:37:00,
2013-09-09 05:42:00,72.3,69.3,29.99,North,0,1.0,1.0,90,0.00,,,0.00,meteohub,2013-09-09 10:42:00,
2013-09-09 05:47:00,72.3,69.3,29.99,NE,45,0.0,2.0,90,0.00,,,0.00,meteohub,2013-09-09 10:47:00,
2013-09-09 05:52:00,72.3,69.3,29.99,NE,45,1.0,2.0,90,0.00,,,0.00,meteohub,2013-09-09 10:52:00,
2013-09-09 05:57:00,72.3,69.6,29.99,NE,45,0.0,2.0,91,0.00,,,0.00,meteohub,2013-09-09 10:57:00,
2013-09-09 06:02:00,72.3,69.3,29.99,NE,45,0.0,2.0,90,0.00,,,0.00,meteohub,2013-09-09 11:02:00,
2013-09-09 06:07:00,72.3,69.3,29.99,NE,45,0.0,2.0,90,0.00,,,0.00,meteohub,2013-09-09 11:07:00,
2013-09-09 06:12:00,72.1,69.4,29.99,North,0,2.0,2.0,91,0.00,,,0.00,meteohub,2013-09-09 11:12:00,
2013-09-09 06:17:00,72.1,69.4,29.99,North,0,2.0,2.0,91,0.00,,,0.00,meteohub,2013-09-09 11:17:00,
2013-09-09 06:22:00,72.1,69.4,29.99,North,0,1.0,2.0,91,0.00,,,0.00,meteohub,2013-09-09 11:22:00,
2013-09-09 06:27:00,72.1,69.4,30.00,North,0,2.0,2.0,91,0.00,,,0.00,meteohub,2013-09-09 11:27:00,
2013-09-09 06:32:00,72.1,69.4,30.00,North,0,2.0,2.0,91,0.00,,,0.00,meteohub,2013-09-09 11:32:00,
2013-09-09 06:37:00,72.1,69.4,30.00,North,0,2.0,2.0,91,0.00,,,0.00,meteohub,2013-09-09 11:37:00,
2013-09-09 06:42:00,72.0,69.3,30.00,NW,315,0.0,2.0,91,0.00,,,0.00,meteohub,2013-09-09 11:42:00,
2013-09-09 06:47:00,72.1,69.4,30.00,NW,315,0.0,2.0,91,0.00,,,0.00,meteohub,2013-09-09 11:47:00,
2013-09-09 06:52:00,72.1,69.4,30.01,NW,315,1.0,2.0,91,0.00,,,0.00,meteohub,2013-09-09 11:52:00,
2013-09-09 06:57:00,72.0,69.3,30.01,NW,315,0.0,1.0,91,0.00,,,0.00,meteohub,2013-09-09 11:57:00,
2013-09-09 07:02:00,72.1,69.4,30.01,NW,315,0.0,1.0,91,0.00,,,0.00,meteohub,2013-09-09 12:02:00,
2013-09-09 07:07:00,72.1,69.4,30.02,NW,315,0.0,1.0,91,0.00,,,0.00,meteohub,2013-09-09 12:07:00,
2013-09-09 07:12:00,72.3,69.6,30.01,North,0,2.0,2.0,91,0.00,,,0.00,meteohub,2013-09-09 12:12:00,
2013-09-09 07:22:00,72.3,69.6,30.02,North,0,1.0,2.0,91,0.00,,,0.00,meteohub,2013-09-09 12:22:00,
2013-09-09 07:27:00,72.5,69.8,30.02,North,0,2.0,2.0,91,0.00,,,0.00,meteohub,2013-09-09 12:27:00,
2013-09-09 07:32:00,72.7,70.0,30.02,NE,45,2.0,2.0,91,0.00,,,0.00,meteohub,2013-09-09 12:32:00,
2013-09-09 07:37:00,73.0,70.3,30.02,North,0,2.0,2.0,91,0.00,,,0.00,meteohub,2013-09-09 12:37:00,
2013-09-09 07:42:00,73.4,70.5,30.02,North,0,3.0,3.0,91,0.00,,,0.00,meteohub,2013-09-09 12:42:00,
2013-09-09 07:47:00,73.8,70.9,30.03,NW,315,2.0,3.0,91,0.00,,,0.00,meteohub,2013-09-09 12:47:00,
2013-09-09 07:52:00,74.3,71.4,30.02,North,0,4.0,4.0,91,0.00,,,0.00,meteohub,2013-09-09 12:52:00,
2013-09-09 07:57:00,74.7,71.8,30.03,North,0,5.0,5.0,91,0.00,,,0.00,meteohub,2013-09-09 12:57:00,
2013-09-09 08:02:00,75.0,72.0,30.02,North,0,4.0,8.0,90,0.00,,,0.00,meteohub,2013-09-09 13:02:00,
2013-09-09 08:07:00,75.0,72.0,30.03,North,0,4.0,8.0,90,0.00,,,0.00,meteohub,2013-09-09 13:07:00,
2013-09-09 08:12:00,75.7,72.3,30.02,NE,45,3.0,8.0,89,0.00,,,0.00,meteohub,2013-09-09 13:12:00,
2013-09-09 08:17:00,76.5,72.7,30.02,NE,45,2.0,5.0,88,0.00,,,0.00,meteohub,2013-09-09 13:17:00,
2013-09-09 08:22:00,77.0,73.2,30.03,NE,45,7.0,7.0,88,0.00,,,0.00,meteohub,2013-09-09 13:22:00,
2013-09-09 08:27:00,77.2,73.0,30.03,NNE,23,6.0,7.0,87,0.00,,,0.00,meteohub,2013-09-09 13:27:00,
2013-09-09 08:32:00,77.5,73.0,30.03,NE,45,2.0,7.0,86,0.00,,,0.00,meteohub,2013-09-09 13:32:00,
2013-09-09 08:37:00,77.7,73.2,30.04,NE,45,4.0,7.0,86,0.00,,,0.00,meteohub,2013-09-09 13:37:00,
2013-09-09 08:42:00,78.3,73.4,30.04,NE,45,4.0,6.0,85,0.00,,,0.00,meteohub,2013-09-09 13:42:00,
2013-09-09 08:47:00,78.6,73.4,30.04,NE,45,4.0,6.0,84,0.00,,,0.00,meteohub,2013-09-09 13:47:00,
2013-09-09 08:52:00,79.0,73.8,30.04,North,0,4.0,8.0,84,0.00,,,0.00,meteohub,2013-09-09 13:52:00,
2013-09-09 08:57:00,79.2,73.6,30.04,NW,315,3.0,8.0,83,0.00,,,0.00,meteohub,2013-09-09 13:57:00,
2013-09-09 09:02:00,79.5,73.6,30.04,NE,45,8.0,8.0,82,0.00,,,0.00,meteohub,2013-09-09 14:02:00,
2013-09-09 09:07:00,79.5,73.6,30.04,NE,45,8.0,8.0,82,0.00,,,0.00,meteohub,2013-09-09 14:07:00,
2013-09-09 09:12:00,80.1,73.8,30.04,North,0,3.0,8.0,81,0.00,,,0.00,meteohub,2013-09-09 14:12:00,
2013-09-09 09:17:00,80.4,73.8,30.04,East,90,7.0,8.0,80,0.00,,,0.00,meteohub,2013-09-09 14:17:00,
2013-09-09 09:22:00,80.8,73.6,30.05,NW,315,4.0,8.0,79,0.00,,,0.00,meteohub,2013-09-09 14:22:00,
2013-09-09 09:27:00,81.1,73.9,30.04,NE,45,4.0,8.0,79,0.00,,,0.00,meteohub,2013-09-09 14:27:00,
2013-09-09 09:32:00,81.7,74.1,30.04,North,0,2.0,8.0,78,0.00,,,0.00,meteohub,2013-09-09 14:32:00,
2013-09-09 09:37:00,82.2,74.7,30.04,NW,315,2.0,5.0,78,0.00,,,0.00,meteohub,2013-09-09 14:37:00,
2013-09-09 09:42:00,82.8,75.2,30.04,NW,315,2.0,5.0,78,0.00,,,0.00,meteohub,2013-09-09 14:42:00,
2013-09-09 09:47:00,83.3,75.0,30.05,NW,315,4.0,4.0,76,0.00,,,0.00,meteohub,2013-09-09 14:47:00,
2013-09-09 09:57:00,83.8,75.0,30.04,North,0,4.0,7.0,75,0.00,,,0.00,meteohub,2013-09-09 14:57:00,
2013-09-09 10:02:00,84.4,75.6,30.05,North,0,4.0,7.0,75,0.00,,,0.00,meteohub,2013-09-09 15:02:00,
2013-09-09 10:07:00,84.6,75.4,30.05,ENE,68,6.0,7.0,74,0.00,,,0.00,meteohub,2013-09-09 15:07:00,
2013-09-09 10:12:00,84.6,74.5,30.04,North,0,7.0,7.0,72,0.00,,,0.00,meteohub,2013-09-09 15:12:00,
2013-09-09 10:17:00,84.6,74.5,30.04,NE,45,7.0,7.0,72,0.00,,,0.00,meteohub,2013-09-09 15:17:00,
2013-09-09 10:22:00,84.6,74.5,30.05,NE,45,7.0,7.0,72,0.00,,,0.00,meteohub,2013-09-09 15:22:00,
2013-09-09 10:27:00,85.6,74.7,30.05,NW,315,4.0,7.0,70,0.00,,,0.00,meteohub,2013-09-09 15:27:00,
2013-09-09 10:32:00,86.2,75.2,30.04,NE,45,5.0,7.0,70,0.00,,,0.00,meteohub,2013-09-09 15:32:00,
2013-09-09 10:37:00,86.4,75.0,30.05,NW,315,8.0,8.0,69,0.00,,,0.00,meteohub,2013-09-09 15:37:00,
2013-09-09 10:42:00,86.4,74.5,30.05,NE,45,4.0,8.0,68,0.00,,,0.00,meteohub,2013-09-09 15:42:00,
2013-09-09 10:47:00,86.7,73.9,30.04,NE,45,7.0,8.0,66,0.00,,,0.00,meteohub,2013-09-09 15:47:00,
2013-09-09 10:52:00,86.9,73.8,30.04,East,90,6.0,8.0,65,0.00,,,0.00,meteohub,2013-09-09 15:52:00,
2013-09-09 10:57:00,87.3,74.5,30.05,North,0,2.0,7.0,66,0.00,,,0.00,meteohub,2013-09-09 15:57:00,
2013-09-09 11:02:00,87.8,74.5,30.04,WNW,293,3.0,7.0,65,0.00,,,0.00,meteohub,2013-09-09 16:02:00,
2013-09-09 11:07:00,87.8,74.5,30.04,WNW,293,3.0,6.0,65,0.00,,,0.00,meteohub,2013-09-09 16:07:00,
2013-09-09 11:12:00,88.3,73.6,30.04,ESE,113,4.0,8.0,62,0.00,,,0.00,meteohub,2013-09-09 16:12:00,
2013-09-09 11:17:00,88.3,72.7,30.05,East,90,3.0,8.0,60,0.00,,,0.00,meteohub,2013-09-09 16:17:00,
2013-09-09 11:22:00,88.5,72.9,30.05,East,90,3.0,8.0,60,0.00,,,0.00,meteohub,2013-09-09 16:22:00,
2013-09-09 11:27:00,88.3,71.6,30.05,North,0,8.0,11.0,58,0.00,,,0.00,meteohub,2013-09-09 16:27:00,
2013-09-09 11:32:00,88.2,72.0,30.04,East,90,2.0,11.0,59,0.00,,,0.00,meteohub,2013-09-09 16:32:00,
2013-09-09 11:37:00,88.0,70.3,30.05,East,90,5.0,11.0,56,0.00,,,0.00,meteohub,2013-09-09 16:37:00,
2013-09-09 11:42:00,88.2,71.1,30.04,NE,45,7.0,9.0,57,0.00,,,0.00,meteohub,2013-09-09 16:42:00,
2013-09-09 11:47:00,88.7,70.5,30.04,NE,45,4.0,8.0,55,0.00,,,0.00,meteohub,2013-09-09 16:47:00,
2013-09-09 11:52:00,88.5,69.8,30.04,SSE,158,4.0,8.0,54,0.00,,,0.00,meteohub,2013-09-09 16:52:00,
2013-09-09 11:57:00,88.3,69.6,30.04,NNE,23,7.0,8.0,54,0.00,,,0.00,meteohub,2013-09-09 16:57:00,
2013-09-09 12:02:00,88.5,70.3,30.04,ENE,68,5.0,11.0,55,0.00,,,0.00,meteohub,2013-09-09 17:02:00,
2013-09-09 12:07:00,88.5,70.3,30.04,ENE,68,5.0,11.0,55,0.00,,,0.00,meteohub,2013-09-09 17:07:00,
2013-09-09 12:12:00,89.1,69.6,30.04,SE,135,2.0,7.0,53,0.00,,,0.00,meteohub,2013-09-09 17:12:00,
2013-09-09 12:17:00,89.6,70.7,30.04,East,90,3.0,7.0,54,0.00,,,0.00,meteohub,2013-09-09 17:17:00,
2013-09-09 12:22:00,90.1,70.2,30.04,South,180,4.0,7.0,52,0.00,,,0.00,meteohub,2013-09-09 17:22:00,
2013-09-09 12:27:00,90.9,70.2,30.04,East,90,8.0,8.0,51,0.00,,,0.00,meteohub,2013-09-09 17:27:00,
2013-09-09 12:32:00,90.9,68.5,30.04,East,90,8.0,8.0,48,0.00,,,0.00,meteohub,2013-09-09 17:32:00,
2013-09-09 12:37:00,90.9,68.5,30.04,East,90,6.0,10.0,48,0.00,,,0.00,meteohub,2013-09-09 17:37:00,
2013-09-09 12:42:00,90.5,68.7,30.04,East,90,2.0,10.0,49,0.00,,,0.00,meteohub,2013-09-09 17:42:00,
2013-09-09 12:47:00,90.7,68.4,30.04,SE,135,5.0,10.0,48,0.00,,,0.00,meteohub,2013-09-09 17:47:00,
2013-09-09 12:52:00,90.7,67.1,30.04,North,0,6.0,8.0,46,0.00,,,0.00,meteohub,2013-09-09 17:52:00,
2013-09-09 13:02:00,91.2,66.9,30.03,East,90,7.0,8.0,45,0.00,,,0.00,meteohub,2013-09-09 18:02:00,
2013-09-09 13:07:00,91.2,66.9,30.03,East,90,7.0,8.0,45,0.00,,,0.00,meteohub,2013-09-09 18:07:00,
2013-09-09 13:12:00,91.9,68.2,30.03,East,90,4.0,8.0,46,0.00,,,0.00,meteohub,2013-09-09 18:12:00,
2013-09-09 13:17:00,92.1,67.1,30.03,SE,135,5.0,7.0,44,0.00,,,0.00,meteohub,2013-09-09 18:17:00,
2013-09-09 13:22:00,91.9,66.9,30.03,SE,135,4.0,8.0,44,0.00,,,0.00,meteohub,2013-09-09 18:22:00,
2013-09-09 13:27:00,91.9,65.5,30.03,SE,135,4.0,9.0,42,0.00,,,0.00,meteohub,2013-09-09 18:27:00,
2013-09-09 13:32:00,92.1,65.7,30.02,SE,135,6.0,11.0,42,0.00,,,0.00,meteohub,2013-09-09 18:32:00,
2013-09-09 13:37:00,91.9,65.5,30.02,ESE,113,4.0,11.0,42,0.00,,,0.00,meteohub,2013-09-09 18:37:00,
2013-09-09 13:42:00,92.1,64.9,30.02,South,180,6.0,9.0,41,0.00,,,0.00,meteohub,2013-09-09 18:42:00,
2013-09-09 13:47:00,92.1,64.4,30.01,NE,45,4.0,9.0,40,0.00,,,0.00,meteohub,2013-09-09 18:47:00,
2013-09-09 13:52:00,92.1,64.4,30.02,East,90,4.0,9.0,40,0.00,,,0.00,meteohub,2013-09-09 18:52:00,
2013-09-09 14:02:00,92.3,64.4,30.02,SE,135,4.0,11.0,40,0.00,,,0.00,meteohub,2013-09-09 19:02:00,
2013-09-09 14:07:00,92.3,64.4,30.02,SE,135,4.0,11.0,40,0.00,,,0.00,meteohub,2013-09-09 19:07:00,
2013-09-09 14:12:00,92.7,63.3,30.02,ENE,68,5.0,10.0,38,0.00,,,0.00,meteohub,2013-09-09 19:12:00,
2013-09-09 14:17:00,92.5,63.1,30.01,NE,45,9.0,10.0,38,0.00,,,0.00,meteohub,2013-09-09 19:17:00,
2013-09-09 14:22:00,92.8,62.8,30.01,East,90,7.0,10.0,37,0.00,,,0.00,meteohub,2013-09-09 19:22:00,
2013-09-09 14:27:00,93.2,63.1,30.01,North,0,6.0,9.0,37,0.00,,,0.00,meteohub,2013-09-09 19:27:00,
2013-09-09 14:32:00,93.2,63.9,30.00,SW,225,4.0,9.0,38,0.00,,,0.00,meteohub,2013-09-09 19:32:00,
2013-09-09 14:37:00,92.8,62.8,30.00,East,90,10.0,10.0,37,0.00,,,0.00,meteohub,2013-09-09 19:37:00,
2013-09-09 14:42:00,92.7,62.6,30.00,East,90,9.0,10.0,37,0.00,,,0.00,meteohub,2013-09-09 19:42:00,
2013-09-09 14:47:00,92.5,63.1,30.00,East,90,4.0,10.0,38,0.00,,,0.00,meteohub,2013-09-09 19:47:00,
2013-09-09 14:57:00,92.3,58.1,30.00,East,90,9.0,12.0,32,0.00,,,0.00,meteohub,2013-09-09 19:57:00,
2013-09-09 15:02:00,92.5,60.1,30.00,SE,135,5.0,12.0,34,0.00,,,0.00,meteohub,2013-09-09 20:02:00,
2013-09-09 15:07:00,92.5,60.1,29.99,SE,135,5.0,12.0,34,0.00,,,0.00,meteohub,2013-09-09 20:07:00,
2013-09-09 15:12:00,93.2,60.6,29.99,NE,45,11.0,12.0,34,0.00,,,0.00,meteohub,2013-09-09 20:12:00,
2013-09-09 15:17:00,93.2,61.5,29.99,NE,45,3.0,11.0,35,0.00,,,0.00,meteohub,2013-09-09 20:17:00,
2013-09-09 15:22:00,93.2,60.6,29.99,East,90,10.0,11.0,34,0.00,,,0.00,meteohub,2013-09-09 20:22:00,
2013-09-09 15:27:00,93.0,60.4,29.99,NW,315,8.0,11.0,34,0.00,,,0.00,meteohub,2013-09-09 20:27:00,
2013-09-09 15:32:00,93.0,60.4,29.99,NE,45,5.0,12.0,34,0.00,,,0.00,meteohub,2013-09-09 20:32:00,
2013-09-09 15:37:00,93.0,60.4,29.99,NE,45,9.0,12.0,34,0.00,,,0.00,meteohub,2013-09-09 20:37:00,
2013-09-09 15:42:00,92.8,59.5,29.99,SE,135,4.0,12.0,33,0.00,,,0.00,meteohub,2013-09-09 20:42:00,
2013-09-09 15:47:00,93.0,59.7,29.99,SE,135,8.0,12.0,33,0.00,,,0.00,meteohub,2013-09-09 20:47:00,
2013-09-09 15:52:00,93.2,60.6,29.99,East,90,7.0,12.0,34,0.00,,,0.00,meteohub,2013-09-09 20:52:00,
2013-09-09 16:02:00,93.6,60.1,29.99,SE,135,5.0,10.0,33,0.00,,,0.00,meteohub,2013-09-09 21:02:00,
2013-09-09 16:07:00,93.6,60.1,29.99,SE,135,5.0,10.0,33,0.00,,,0.00,meteohub,2013-09-09 21:07:00,
2013-09-09 16:12:00,93.4,59.2,29.98,East,90,5.0,8.0,32,0.00,,,0.00,meteohub,2013-09-09 21:12:00,
2013-09-09 16:17:00,93.6,60.1,29.99,NE,45,8.0,11.0,33,0.00,,,0.00,meteohub,2013-09-09 21:17:00,
2013-09-09 16:22:00,92.8,60.3,29.99,East,90,8.0,11.0,34,0.00,,,0.00,meteohub,2013-09-09 21:22:00,
2013-09-09 16:27:00,92.8,61.9,29.99,NE,45,4.0,8.0,36,0.00,,,0.00,meteohub,2013-09-09 21:27:00,
2013-09-09 16:32:00,93.6,62.6,29.99,NE,45,3.0,8.0,36,0.00,,,0.00,meteohub,2013-09-09 21:32:00,
2013-09-09 16:37:00,93.6,61.7,29.98,South,180,4.0,8.0,35,0.00,,,0.00,meteohub,2013-09-09 21:37:00,
2013-09-09 16:42:00,93.6,62.6,29.98,East,90,10.0,10.0,36,0.00,,,0.00,meteohub,2013-09-09 21:42:00,
2013-09-09 16:47:00,93.0,62.1,29.99,SE,135,8.0,10.0,36,0.00,,,0.00,meteohub,2013-09-09 21:47:00,
2013-09-09 16:52:00,92.8,62.8,29.99,South,180,11.0,11.0,37,0.00,,,0.00,meteohub,2013-09-09 21:52:00,
2013-09-09 16:57:00,92.7,62.6,29.98,SE,135,5.0,11.0,37,0.00,,,0.00,meteohub,2013-09-09 21:57:00,
2013-09-09 17:02:00,92.5,62.4,29.98,SE,135,4.0,11.0,37,0.00,,,0.00,meteohub,2013-09-09 22:02:00,
2013-09-09 17:07:00,92.5,62.4,29.99,SE,135,4.0,11.0,37,0.00,,,0.00,meteohub,2013-09-09 22:07:00,
2013-09-09 17:12:00,92.1,63.7,29.99,SSW,203,9.0,9.0,39,0.00,,,0.00,meteohub,2013-09-09 22:12:00,
2013-09-09 17:17:00,91.2,63.5,29.99,East,90,10.0,10.0,40,0.00,,,0.00,meteohub,2013-09-09 22:17:00,
2013-09-09 17:22:00,90.5,63.5,29.99,SE,135,5.0,10.0,41,0.00,,,0.00,meteohub,2013-09-09 22:22:00,
2013-09-09 17:27:00,90.0,63.9,29.99,NE,45,4.0,10.0,42,0.00,,,0.00,meteohub,2013-09-09 22:27:00,
2013-09-09 17:32:00,90.0,64.4,29.99,South,180,3.0,10.0,43,0.00,,,0.00,meteohub,2013-09-09 22:32:00,
2013-09-09 17:37:00,89.6,64.2,29.99,SE,135,7.0,9.0,43,0.00,,,0.00,meteohub,2013-09-09 22:37:00,
2013-09-09 17:42:00,89.4,64.6,29.99,East,90,3.0,7.0,44,0.00,,,0.00,meteohub,2013-09-09 22:42:00,
2013-09-09 17:47:00,89.4,64.6,29.99,SE,135,4.0,7.0,44,0.00,,,0.00,meteohub,2013-09-09 22:47:00,
2013-09-09 17:52:00,89.6,65.5,29.99,NE,45,4.0,7.0,45,0.00,,,0.00,meteohub,2013-09-09 22:52:00,
2013-09-09 17:57:00,89.4,65.3,29.99,NE,45,4.0,4.0,45,0.00,,,0.00,meteohub,2013-09-09 22:57:00,
2013-09-09 18:02:00,89.2,65.1,29.99,SE,135,3.0,5.0,45,0.00,,,0.00,meteohub,2013-09-09 23:02:00,
2013-09-09 18:07:00,89.2,65.1,29.99,SE,135,3.0,5.0,45,0.00,,,0.00,meteohub,2013-09-09 23:07:00,
2013-09-09 18:12:00,88.7,65.3,29.99,East,90,2.0,5.0,46,0.00,,,0.00,meteohub,2013-09-09 23:12:00,
2013-09-09 18:17:00,88.9,66.0,29.99,SE,135,1.0,8.0,47,0.00,,,0.00,meteohub,2013-09-09 23:17:00,
2013-09-09 18:22:00,89.1,66.2,29.99,SE,135,2.0,8.0,47,0.00,,,0.00,meteohub,2013-09-09 23:22:00,
2013-09-09 18:27:00,89.4,66.6,29.99,East,90,4.0,8.0,47,0.00,,,0.00,meteohub,2013-09-09 23:27:00,
2013-09-09 18:32:00,88.9,66.6,29.99,ENE,68,3.0,6.0,48,0.00,,,0.00,meteohub,2013-09-09 23:32:00,
2013-09-09 18:37:00,88.9,66.6,29.99,North,0,2.0,6.0,48,0.00,,,0.00,meteohub,2013-09-09 23:37:00,
2013-09-09 18:42:00,88.5,66.9,29.99,South,180,3.0,6.0,49,0.00,,,0.00,meteohub,2013-09-09 23:42:00,
2013-09-09 18:47:00,88.3,66.7,29.99,South,180,3.0,5.0,49,0.00,,,0.00,meteohub,2013-09-09 23:47:00,
2013-09-09 18:52:00,88.2,66.6,29.99,SE,135,2.0,9.0,49,0.00,,,0.00,meteohub,2013-09-09 23:52:00,
2013-09-09 18:57:00,88.0,66.9,29.99,SE,135,2.0,9.0,50,0.00,,,0.00,meteohub,2013-09-09 23:57:00,
2013-09-09 19:07:00,88.0,66.9,30.00,SSE,158,2.0,4.0,50,0.00,,,0.00,meteohub,2013-09-10 00:07:00,
2013-09-09 19:12:00,87.4,67.1,29.99,SE,135,2.0,5.0,51,0.00,,,0.00,meteohub,2013-09-10 00:12:00,
2013-09-09 19:17:00,87.3,67.5,29.99,East,90,2.0,5.0,52,0.00,,,0.00,meteohub,2013-09-10 00:17:00,
2013-09-09 19:22:00,87.1,67.3,29.99,SE,135,2.0,5.0,52,0.00,,,0.00,meteohub,2013-09-10 00:22:00,
2013-09-09 19:27:00,86.9,67.6,29.99,East,90,3.0,5.0,53,0.00,,,0.00,meteohub,2013-09-10 00:27:00,
2013-09-09 19:32:00,86.7,67.5,29.99,East,90,2.0,4.0,53,0.00,,,0.00,meteohub,2013-09-10 00:32:00,
2013-09-09 19:37:00,86.5,68.0,30.00,South,180,3.0,4.0,54,0.00,,,0.00,meteohub,2013-09-10 00:37:00,
2013-09-09 19:42:00,86.5,68.4,30.00,East,90,2.0,4.0,55,0.00,,,0.00,meteohub,2013-09-10 00:42:00,
2013-09-09 19:47:00,86.2,68.2,30.00,East,90,2.0,4.0,55,0.00,,,0.00,meteohub,2013-09-10 00:47:00,
2013-09-09 19:52:00,86.2,68.7,30.00,East,90,4.0,4.0,56,0.00,,,0.00,meteohub,2013-09-10 00:52:00,
2013-09-09 19:57:00,85.8,68.4,30.00,NE,45,2.0,4.0,56,0.00,,,0.00,meteohub,2013-09-10 00:57:00,
2013-09-09 20:02:00,85.6,68.2,30.00,East,90,2.0,4.0,56,0.00,,,0.00,meteohub,2013-09-10 01:02:00,
2013-09-09 20:07:00,85.6,68.2,30.00,East,90,2.0,4.0,56,0.00,,,0.00,meteohub,2013-09-10 01:07:00,
2013-09-09 20:12:00,85.3,68.4,30.00,SE,135,0.0,2.0,57,0.00,,,0.00,meteohub,2013-09-10 01:12:00,
2013-09-09 20:17:00,85.1,68.7,30.00,East,90,2.0,2.0,58,0.00,,,0.00,meteohub,2013-09-10 01:17:00,
2013-09-09 20:22:00,85.1,68.7,30.00,East,90,2.0,4.0,58,0.00,,,0.00,meteohub,2013-09-10 01:22:00,
2013-09-09 20:27:00,84.7,68.9,30.00,NE,45,2.0,4.0,59,0.00,,,0.00,meteohub,2013-09-10 01:27:00,
2013-09-09 20:32:00,84.6,68.7,30.00,East,90,2.0,4.0,59,0.00,,,0.00,meteohub,2013-09-10 01:32:00,
2013-09-09 20:42:00,84.2,68.7,30.01,SE,135,2.0,4.0,60,0.00,,,0.00,meteohub,2013-09-10 01:42:00,
2013-09-09 20:47:00,84.0,68.7,30.01,SE,135,0.0,4.0,60,0.00,,,0.00,meteohub,2013-09-10 01:47:00,
2013-09-09 20:52:00,83.8,68.9,30.01,East,90,1.0,4.0,61,0.00,,,0.00,meteohub,2013-09-10 01:52:00,
2013-09-09 20:57:00,83.7,68.7,30.01,East,90,2.0,4.0,61,0.00,,,0.00,meteohub,2013-09-10 01:57:00,
2013-09-09 21:02:00,83.5,69.1,30.02,SE,135,2.0,2.0,62,0.00,,,0.00,meteohub,2013-09-10 02:02:00,
2013-09-09 21:07:00,83.5,69.1,30.01,SE,135,2.0,2.0,62,0.00,,,0.00,meteohub,2013-09-10 02:07:00,
2013-09-09 21:12:00,83.3,68.9,30.02,East,90,2.0,2.0,62,0.00,,,0.00,meteohub,2013-09-10 02:12:00,
2013-09-09 21:17:00,83.1,69.3,30.02,East,90,1.0,2.0,63,0.00,,,0.00,meteohub,2013-09-10 02:17:00,
2013-09-09 21:22:00,83.1,69.3,30.02,East,90,1.0,2.0,63,0.00,,,0.00,meteohub,2013-09-10 02:22:00,
2013-09-09 21:27:00,82.8,68.9,30.02,East,90,0.0,2.0,63,0.00,,,0.00,meteohub,2013-09-10 02:27:00,
2013-09-09 21:32:00,82.6,68.7,30.02,NE,45,1.0,2.0,63,0.00,,,0.00,meteohub,2013-09-10 02:32:00,
2013-09-09 21:37:00,82.4,69.1,30.03,East,90,1.0,2.0,64,0.00,,,0.00,meteohub,2013-09-10 02:37:00,
2013-09-09 21:42:00,82.2,68.9,30.02,North,0,2.0,2.0,64,0.00,,,0.00,meteohub,2013-09-10 02:42:00,
2013-09-09 21:47:00,82.0,69.1,30.02,North,0,2.0,2.0,65,0.00,,,0.00,meteohub,2013-09-10 02:47:00,
2013-09-09 21:52:00,81.9,68.9,30.02,North,0,2.0,2.0,65,0.00,,,0.00,meteohub,2013-09-10 02:52:00,
2013-09-09 22:02:00,81.7,68.7,30.02,North,0,0.0,2.0,65,0.00,,,0.00,meteohub,2013-09-10 03:02:00,
2013-09-09 22:07:00,81.7,68.7,30.02,North,0,0.0,2.0,65,0.00,,,0.00,meteohub,2013-09-10 03:07:00,
2013-09-09 22:12:00,81.7,69.3,30.03,East,90,0.0,0.0,66,0.00,,,0.00,meteohub,2013-09-10 03:12:00,
2013-09-09 22:17:00,81.1,68.7,30.03,East,90,0.0,0.0,66,0.00,,,0.00,meteohub,2013-09-10 03:17:00,
2013-09-09 22:22:00,81.0,68.9,30.03,East,90,0.0,0.0,67,0.00,,,0.00,meteohub,2013-09-10 03:22:00,
2013-09-09 22:27:00,80.6,69.1,30.03,East,90,0.0,0.0,68,0.00,,,0.00,meteohub,2013-09-10 03:27:00,
2013-09-09 22:32:00,80.2,68.7,30.02,East,90,0.0,0.0,68,0.00,,,0.00,meteohub,2013-09-10 03:32:00,
2013-09-09 22:42:00,79.9,68.7,30.02,East,90,0.0,0.0,69,0.00,,,0.00,meteohub,2013-09-10 03:42:00,
2013-09-09 22:47:00,79.7,68.5,30.02,East,90,0.0,0.0,69,0.00,,,0.00,meteohub,2013-09-10 03:47:00,
2013-09-09 22:52:00,79.5,68.9,30.03,East,90,0.0,0.0,70,0.00,,,0.00,meteohub,2013-09-10 03:52:00,
2013-09-09 22:57:00,79.3,68.7,30.03,East,90,0.0,0.0,70,0.00,,,0.00,meteohub,2013-09-10 03:57:00,
2013-09-09 23:02:00,79.3,69.1,30.02,East,90,0.0,0.0,71,0.00,,,0.00,meteohub,2013-09-10 04:02:00,
2013-09-09 23:07:00,79.3,69.1,30.02,East,90,0.0,0.0,71,0.00,,,0.00,meteohub,2013-09-10 04:07:00,
2013-09-09 23:12:00,79.2,69.3,30.02,East,90,0.0,0.0,72,0.00,,,0.00,meteohub,2013-09-10 04:12:00,
2013-09-09 23:17:00,79.0,69.3,30.03,East,90,0.0,0.0,72,0.00,,,0.00,meteohub,2013-09-10 04:17:00,
2013-09-09 23:22:00,78.8,69.1,30.02,East,90,0.0,0.0,72,0.00,,,0.00,meteohub,2013-09-10 04:22:00,
2013-09-09 23:27:00,78.6,69.3,30.02,East,90,0.0,0.0,73,0.00,,,0.00,meteohub,2013-09-10 04:27:00,
2013-09-09 23:37:00,78.4,69.1,30.02,East,90,2.0,2.0,73,0.00,,,0.00,meteohub,2013-09-10 04:37:00,
2013-09-09 23:42:00,78.3,68.9,30.02,East,90,0.0,2.0,73,0.00,,,0.00,meteohub,2013-09-10 04:42:00,
2013-09-09 23:47:00,78.3,69.3,30.02,East,90,1.0,2.0,74,0.00,,,0.00,meteohub,2013-09-10 04:47:00,
2013-09-09 23:52:00,78.3,69.3,30.02,East,90,1.0,2.0,74,0.00,,,0.00,meteohub,2013-09-10 04:52:00,
2013-09-09 23:57:00,78.1,69.4,30.02,NE,45,2.0,2.0,75,0.00,,,0.00,meteohub,2013-09-10 04:57:00,